Weather History for New Iberia, LA

Change the Weather History Date:

Sunday, July 7, 2013

  Actual Average Record
Temperature  
Mean Temperature 80 °F 82 °F  
Max Temperature 85 °F 91 °F 100 °F (1980)
Min Temperature 75 °F 73 °F 67 °F (1972)
Degree Days  
Heating Degree Days 0 0  
Month to date heating degree days 0 0  
Since 1 June heating degree days 0 0  
Since 1 July heating degree days 0 0  
Cooling Degree Days 15 17  
Month to date cooling degree days 114 119  
Year to date cooling degree days 1258 1160  
Since 1 June cooling degree days 677 590  
Growing Degree Days 30 (Base 50)    
Moisture  
Dew Point 73 °F    
Average Humidity 87    
Maximum Humidity 94    
Minimum Humidity 79    
Precipitation  
Precipitation 0.96 in 0.22 in 3.98 in (2009)
Month to date precipitation 1.99 1.52  
Year to date precipitation 43.55 30.65  
Sea Level Pressure  
Sea Level Pressure 30.03 in    
Wind  
Wind Speed 5 mph (SSE)    
Max Wind Speed 15 mph    
Max Gust Speed 21 mph    
Visibility 7 miles    
Events Fog , Rain , Thunderstorm    
T = Trace of Precipitation, MM = Missing Value Source: NWS Daily Summary

Daily Weather History Graph

Daily Weather History Graph

Search for Another Location

Airport:

Trip Planner

Search our weather history database for the weather conditions in past years. The results will help you decide how hot, cold, wet, or windy it might be!

Date:

Astronomy

Jul. 07, 2013 Rise Set
Actual Time 6:12 AM CDT 8:12 PM CDT
Civil Twilight 5:45 AM CDT 8:39 PM CDT
Nautical Twilight 5:12 AM CDT 9:12 PM CDT
Astronomical Twilight 4:37 AM CDT 9:47 PM CDT
Moon 5:44 AM CDT (7/7) 7:41 PM CDT (7/7)
Length of Visible Light 14h 53m
Length of Day
13h 59m
Waning Crescent, 0% of the Moon is Illuminated
Jul 7
Waning Crescent
Jul 8
New
Jul 15
First Quarter
Jul 22
Full
Jul 29
Last Quarter

Hourly Weather History & Observations

Time (CDT) Temp. Heat Index Dew Point Humidity Pressure Visibility Wind Dir Wind Speed Gust Speed Precip Events Conditions
12:53 AM 78.1 °F - 73.9 °F 87% 29.97 in 10.0 mi East 3.5 mph - N/A   Clear
1:53 AM 77.0 °F - 73.9 °F 90% 29.97 in 10.0 mi East 5.8 mph - N/A   Clear
2:29 AM 78.8 °F - 73.4 °F 83% 29.97 in 10.0 mi ESE 5.8 mph - N/A   Partly Cloudy
2:53 AM 78.1 °F - 73.9 °F 87% 29.97 in 10.0 mi ESE 4.6 mph - N/A   Partly Cloudy
3:53 AM 77.0 °F - 73.9 °F 90% 29.98 in 10.0 mi SE 3.5 mph - N/A   Clear
4:53 AM 78.1 °F - 75.0 °F 90% 29.98 in 10.0 mi East 4.6 mph - N/A   Clear
5:53 AM 78.1 °F - 75.0 °F 90% 29.99 in 10.0 mi ENE 4.6 mph - 0.00 in Rain Light Rain
6:17 AM 78.8 °F - 75.2 °F 89% 29.98 in 10.0 mi NNE 3.5 mph - 0.00 in Thunderstorm Thunderstorm
6:39 AM 78.8 °F - 75.2 °F 89% 30.00 in 2.5 mi SW 10.4 mph 16.1 mph 0.03 in Rain , Thunderstorm Thunderstorms and Rain
6:43 AM 77.0 °F - 73.4 °F 89% 30.01 in 1.0 mi South 10.4 mph 19.6 mph 0.13 in Rain , Thunderstorm Heavy Thunderstorms and Rain
6:50 AM 77.0 °F - 73.4 °F 89% 30.02 in 0.5 mi South 8.1 mph - 0.30 in Fog , Rain , Thunderstorm Heavy Thunderstorms and Rain
6:53 AM 77.0 °F - 73.0 °F 88% 30.02 in 0.8 mi South 10.4 mph - 0.31 in Rain , Thunderstorm Heavy Thunderstorms and Rain
6:55 AM 77.0 °F - 73.4 °F 89% 30.02 in 1.0 mi South 10.4 mph - 0.01 in Rain , Thunderstorm Heavy Thunderstorms and Rain
7:22 AM 75.2 °F - 73.4 °F 94% 30.03 in 1.8 mi SSE 6.9 mph - 0.30 in Rain , Thunderstorm Heavy Thunderstorms and Rain
7:29 AM 75.2 °F - 71.6 °F 89% 30.03 in 2.5 mi SE 6.9 mph - 0.32 in Rain , Thunderstorm Heavy Thunderstorms and Rain
7:36 AM 75.2 °F - 71.6 °F 89% 30.03 in 4.0 mi East 5.8 mph - 0.33 in Rain , Thunderstorm Thunderstorms and Rain
7:53 AM 75.0 °F - 72.0 °F 90% 30.04 in 6.0 mi East 5.8 mph - 0.35 in Rain , Thunderstorm Light Thunderstorms and Rain
8:53 AM 75.0 °F - 71.1 °F 87% 30.04 in 7.0 mi South 4.6 mph - 0.08 in Rain Light Rain
9:53 AM 78.1 °F - 73.9 °F 87% 30.04 in 10.0 mi Calm Calm - 0.01 in   Scattered Clouds
10:53 AM 84.9 °F 95.3 °F 77.0 °F 77% 30.05 in 10.0 mi SE 6.9 mph - N/A   Clear
11:20 AM 82.4 °F 88.2 °F 73.4 °F 74% 30.05 in 10.0 mi South 15.0 mph 20.7 mph N/A   Mostly Cloudy
11:37 AM 80.6 °F 84.6 °F 71.6 °F 74% 30.06 in 10.0 mi South 6.9 mph - N/A   Scattered Clouds
11:53 AM 79.0 °F - 72.0 °F 79% 30.07 in 5.0 mi SSE 3.5 mph - 0.01 in Rain Light Rain
12:53 PM 80.1 °F 85.1 °F 75.0 °F 85% 30.06 in 10.0 mi ESE 5.8 mph - 0.02 in Rain Light Rain
1:53 PM 80.1 °F 84.5 °F 73.9 °F 81% 30.04 in 10.0 mi SSE 3.5 mph - 0.02 in Rain Light Rain
2:23 PM 78.8 °F - 73.4 °F 83% 30.06 in 10.0 mi WSW 9.2 mph - 0.01 in Rain Light Rain
2:41 PM 77.0 °F - 73.4 °F 89% 30.07 in 1.8 mi SW 6.9 mph - 0.07 in Rain Heavy Rain
2:53 PM 77.0 °F - 73.0 °F 88% 30.07 in 2.0 mi SW 10.4 mph - 0.11 in Rain Heavy Rain
3:09 PM 77.0 °F - 73.4 °F 89% 30.07 in 7.0 mi WSW 6.9 mph - 0.02 in Rain Light Rain
3:53 PM 77.0 °F - 73.9 °F 90% 30.07 in 10.0 mi SW 8.1 mph - 0.02 in Rain Light Rain
4:53 PM 78.1 °F - 73.9 °F 87% 30.05 in 10.0 mi SW 6.9 mph - 0.03 in Rain Light Rain
5:53 PM 80.1 °F 84.5 °F 73.9 °F 81% 30.06 in 10.0 mi SSW 8.1 mph - 0.00 in   Partly Cloudy
6:53 PM 80.1 °F 84.2 °F 73.0 °F 79% 30.05 in 10.0 mi South 8.1 mph - N/A   Clear
7:53 PM 78.1 °F - 73.0 °F 84% 30.06 in 10.0 mi SE 4.6 mph - N/A   Clear
8:53 PM 77.0 °F - 73.0 °F 88% 30.07 in 10.0 mi SE 3.5 mph - N/A   Clear
9:53 PM 77.0 °F - 73.0 °F 88% 30.08 in 10.0 mi East 5.8 mph - N/A   Clear
10:53 PM 75.9 °F - 73.0 °F 91% 30.08 in 10.0 mi SE 3.5 mph - N/A   Clear
11:53 PM 75.9 °F - 72.0 °F 87% 30.08 in 10.0 mi SE 5.8 mph - N/A   Clear